[[{"header":{"parameterUnit":"m.s-1","parameterCategory":1,"la1":30.2991,"la2":30.254,"lo1":-89.0895,"lo2":-89.0444,"dy":0.0017,"dx":0.0017,"nx":28,"ny":28,"refTime":"2024-06-02T09:00:00:Z","depth":0,"parameterNumber":2,"parameterNumberName":"U-component_of_WINDS"},"data":[0,0,0,0,0,0,0,0,0,0,0,0,0,0,0,0,0,0,0,0,0,0,0,0,0,0,0,0,0,0,0,0,0,0,0,0,0,0,0,0,0,0,0,0,0,0,0,0,0,0,0,0,0,0,0,0,0,0,-0.0016,-0.0015,0,0.0045,0.0046,0.0047,0.0062,0.0062,0.0062,0.0061,0.0123,0.0125,0.0127,0,0,0,0,0,0,0,0,0,0,0,0,0,-0.0122,-0.012,-0.0016,-0.0015,-0.0014,0.0045,0.0046,0.0047,0.0062,0.0062,0.0062,0.0061,0.0123,0.0125,0.0127,0,0,0,0,0,0,0,0,0,0,0,0,0,-0.007,-0.0119,-0.0016,0.0001,0.0003,0.0045,0.0046,0.0047,0.0063,0.0062,0.0061,0.0061,0.0122,0.0125,0.0128,0.0158,0,0,0.0137,0.0138,0,0,0,0,0,0,0,0,-0.0073,-0.0066,-0.0003,-0.0,0.0002,0.0046,0.0032,0.0084,0.0063,0.004,0.0061,0.0061,0.0098,0.0103,0.0116,0.0161,0.0163,0.0137,0.0139,0.014,0.0141,0,0,0,0,0,0,0,-0.0076,-0.0068,0.0008,-0.0002,0.0001,0.0004,0.0011,0.0042,0.0071,0.0042,0.0043,0.005,0.0099,0.0113,0.0117,0.0164,0.0137,0.014,0.0142,0.0143,0.0236,0.0236,0,0,0,0,0,0,-0.0082,-0.0071,0.0006,0.001,-0.0037,0.0007,0.0014,0.0032,0.0071,0.0076,0.0051,0.0051,0.0108,0.0114,0.0119,0.0156,0.014,0.0143,0.0145,0.0235,0.0236,0.0237,0,0,0,0,0,0,-0.0085,-0.0076,0.0004,-0.003,-0.002,0.0009,0.0029,0.0034,0.0047,0.0078,0.0083,0.0059,0.0107,0.0115,0.0148,0.0159,0.0144,0.0147,0.0234,0.0235,0.0236,0.0231,0,0,0,0,0,0,-0.0088,-0.0077,-0.0064,-0.003,-0.0018,0.0032,0.003,0.0035,0.0053,0.0053,0.0087,0.0092,0.0108,0.0143,0.0151,0.0163,0.0149,0.0233,0.0235,0.0236,0.023,0.0232,0.0233,0,0,0,0,0,-0.0092,-0.0068,-0.0064,-0.0054,-0.0002,0.0033,0.0039,0.0057,0.0054,0.0066,0.0085,0.0091,0.0156,0.0146,0.0155,0.0168,0.0233,0.0234,0.0236,0.023,0.0232,0.0233,0,0,0,0,0,0,-0.0102,-0.0063,-0.0058,-0.0022,0.0002,0.0035,0.0051,0.0058,0.0084,0.0083,0.0104,0.0111,0.0142,0.0159,0.0147,0.0198,0.0195,0.0198,0.0187,0.0189,0.019,0.0185,0.0152,0,0,0,0,0,-0.01,-0.0075,-0.0042,-0.0014,-0.0002,0.0022,0.0038,0.0049,0.0075,0.0085,0.0107,0.0131,0.0157,0.0174,0.02,0.0233,0.024,0.0246,0.0247,0.0248,0.025,0.0268,0.0271,0.0242,0.0242,0.0242,0,0,-0.0096,-0.0072,-0.0057,-0.0016,0.0004,0.0029,0.0031,0.0058,0.0076,0.0089,0.0122,0.0138,0.0167,0.0199,0.0215,0.0214,0.026,0.025,0.025,0.0252,0.027,0.0273,0.0275,0.0243,0.0242,0.0242,0,0,-0.0076,-0.0054,-0.0029,-0.0009,0.0021,0.0037,0.0043,0.0076,0.0087,0.012,0.013,0.0152,0.0196,0.0216,0.0232,0.0258,0.0264,0.0266,0.0272,0.0289,0.0292,0.0294,0.0302,0.0305,0.0268,0.0268,0.0268,0,-0.0074,-0.0035,-0.0017,0.0009,0.0027,0.0039,0.0065,0.0083,0.012,0.0131,0.0129,0.0185,0.0205,0.0242,0.0248,0.0261,0.0267,0.0262,0.029,0.0292,0.0294,0.0303,0.0306,0.0268,0.0268,0.0268,0.0268,0,-0.0036,-0.0009,0.0008,0.0043,0.0062,0.0088,0.0109,0.0126,0.0135,0.0151,0.0184,0.0208,0.0238,0.0248,0.0258,0.0286,0.0284,0.0286,0.0282,0.0297,0.0305,0.0308,0.0268,0.0268,0.0268,0.0268,0,0,-0.0019,0.0025,0.0031,0.0047,0.008,0.0101,0.0127,0.0156,0.017,0.0195,0.0216,0.0253,0.0254,0.0272,0.0284,0.0298,0.0317,0.0298,0.0299,0.03,0.0349,0.0347,0.0351,0.0321,0.0322,0.0322,0.0346,0,0.0005,0.0052,0.0068,0.0106,0.0131,0.0143,0.0165,0.0187,0.0203,0.0225,0.0241,0.0267,0.0267,0.0278,0.0293,0.0311,0.0327,0.031,0.034,0.0341,0.0333,0.0355,0.0354,0.0375,0.0349,0.035,0.035,0,0.0039,0.0064,0.0105,0.0135,0.0146,0.0165,0.0193,0.0215,0.024,0.025,0.0269,0.028,0.0306,0.03,0.0336,0.0324,0.0338,0.0348,0.035,0.0353,0.0347,0.0359,0.0382,0.0385,0.0356,0.0355,0.0355,0,0.0046,0.009,0.012,0.0133,0.0169,0.0182,0.0198,0.0223,0.0239,0.0263,0.0274,0.03,0.0315,0.0335,0.0352,0.0347,0.0386,0.0382,0.0395,0.0394,0.0402,0.0402,0.0428,0.0411,0.0411,0.0411,0.0411,0,0.0071,0.0096,0.0123,0.0142,0.0169,0.0187,0.0213,0.0229,0.0251,0.0272,0.0284,0.0303,0.0324,0.0346,0.0359,0.0387,0.0393,0.0402,0.0405,0.04,0.0399,0.0409,0.0408,0.0412,0.0412,0.0412,0.0412,0,0.0084,0.0104,0.0137,0.0168,0.0176,0.0194,0.022,0.0238,0.0253,0.028,0.0287,0.0311,0.0337,0.0356,0.039,0.0398,0.0427,0.0431,0.0419,0.042,0.0431,0.043,0.0465,0.047,0.045,0.045,0.0451,0,0.0098,0.0117,0.015,0.0165,0.018,0.0205,0.0221,0.024,0.0256,0.0286,0.03,0.0327,0.0349,0.039,0.041,0.0436,0.044,0.045,0.0444,0.0438,0.0439,0.0438,0.0439,0.0451,0.0451,0.0451,0.0452,0,0.0122,0.0131,0.0154,0.0181,0.0201,0.0223,0.0245,0.0257,0.0279,0.0297,0.0324,0.0341,0.0375,0.0401,0.0429,0.0444,0.0451,0.0453,0.0457,0.0453,0.0445,0.0449,0.0421,0.0453,0.0452,0.0452,0.0452,0.0452,0.0136,0.0153,0.0178,0.0204,0.0222,0.0243,0.026,0.0278,0.0301,0.033,0.0339,0.0367,0.0391,0.0428,0.0444,0.0465,0.0464,0.047,0.0472,0.0473,0.0473,0.0442,0.047,0.047,0.047,0.047,0.047,0,0.0159,0.0176,0.02,0.023,0.025,0.0256,0.028,0.0296,0.032,0.0342,0.0364,0.0394,0.0419,0.0441,0.0467,0.048,0.0484,0.0486,0.0485,0.0488,0.0472,0.0465,0.0482,0.0482,0.0482,0.0482,0.0482,0.0482,0.0174,0.0203,0.0214,0.0251,0.0268,0.0295,0.0309,0.0327,0.0344,0.0378,0.0399,0.0413,0.0434,0.0462,0.0485,0.049,0.0499,0.05,0.0507,0.0491,0.049,0.0488,0.0482,0.0502,0.0502,0.0522,0.0522,0.0522]},{"header":{"parameterUnit":"m.s-1","parameterCategory":1,"la1":30.2991,"la2":30.254,"lo1":-89.0895,"lo2":-89.0444,"dy":0.0017,"dx":0.0017,"nx":28,"ny":28,"refTime":"2024-06-02T09:00:00:Z","depth":0,"parameterNumber":3,"parameterNumberName":"V-component_of_WINDS"},"data":[0,0,0,0,0,0,0,0,0,0,0,0,0,0,0,0,0,0,0,0,0,0,0,0,0,0,0,0,0,0,0,0,0,0,0,0,0,0,0,0,0,0,0,0,0,0,0,0,0,0,0,0,0,0,0,0,0,0,3.2083,3.2083,0,3.2039,3.2038,3.2038,3.1957,3.1956,3.1954,3.1953,3.1909,3.1909,3.1909,0,0,0,0,0,0,0,0,0,0,0,0,0,3.2099,3.2099,3.2083,3.2083,3.2082,3.2039,3.2038,3.2038,3.1958,3.1956,3.1954,3.1952,3.1909,3.1909,3.1909,0,0,0,0,0,0,0,0,0,0,0,0,0,3.2078,3.2099,3.2083,3.2037,3.2032,3.2039,3.2038,3.2038,3.1958,3.1956,3.1953,3.1951,3.1909,3.1909,3.1909,3.1958,0,0,3.1911,3.1911,0,0,0,0,0,0,0,0,3.2079,3.2077,3.2044,3.204,3.2035,3.2001,3.2028,3.2011,3.1959,3.1986,3.1953,3.195,3.1942,3.1939,3.1936,3.1956,3.1955,3.1911,3.1911,3.1911,3.1911,0,0,0,0,0,0,0,3.208,3.2078,3.2066,3.2044,3.2038,3.2018,3.2013,3.2024,3.1978,3.1984,3.1978,3.1973,3.1939,3.1936,3.1934,3.1954,3.1911,3.1911,3.1911,3.1912,3.2011,3.2014,0,0,0,0,0,0,3.2089,3.208,3.2067,3.2064,3.2052,3.202,3.2014,3.2014,3.1977,3.1969,3.1975,3.197,3.1936,3.1934,3.1933,3.1987,3.1911,3.1912,3.1912,3.2009,3.2012,3.2015,0,0,0,0,0,0,3.2089,3.2088,3.2069,3.2071,3.2067,3.2022,3.2024,3.2015,3.2012,3.1971,3.1962,3.1981,3.1934,3.1932,3.1952,3.1984,3.1912,3.1912,3.2006,3.201,3.2013,3.2096,0,0,0,0,0,0,3.209,3.2089,3.2107,3.2072,3.2067,3.2089,3.2026,3.2016,3.2012,3.2005,3.1974,3.1967,3.1932,3.1952,3.1953,3.1983,3.1912,3.2003,3.2008,3.2012,3.209,3.2102,3.2112,0,0,0,0,0,3.2091,3.2132,3.2108,3.2107,3.2088,3.2091,3.2089,3.2048,3.2015,3.2033,3.2007,3.1968,3.1981,3.1955,3.1955,3.1986,3.2001,3.2007,3.2012,3.2085,3.21,3.2112,0,0,0,0,0,0,3.2173,3.2127,3.21,3.2131,3.2116,3.2078,3.2099,3.2064,3.2058,3.2052,3.2002,3.1995,3.2022,3.2006,3.1978,3.2031,3.1985,3.199,3.2041,3.2054,3.2065,3.2068,3.1913,0,0,0,0,0,3.2195,3.2201,3.216,3.2192,3.2185,3.2144,3.2144,3.2113,3.2096,3.2089,3.2064,3.2049,3.2049,3.2051,3.2049,3.2088,3.208,3.2109,3.212,3.2129,3.2135,3.2153,3.2166,3.2032,3.2032,3.2032,0,0,3.224,3.2215,3.2222,3.2208,3.2192,3.22,3.2139,3.2149,3.2154,3.2091,3.2108,3.209,3.2069,3.2099,3.2111,3.2086,3.217,3.2136,3.2144,3.2144,3.216,3.2173,3.2184,3.2036,3.2035,3.2035,0,0,3.2325,3.2308,3.2331,3.2317,3.2294,3.2266,3.2272,3.224,3.2225,3.2241,3.2193,3.2199,3.2201,3.2188,3.2182,3.2263,3.2226,3.2263,3.232,3.2339,3.235,3.2359,3.2387,3.2398,3.2269,3.2269,3.2269,0,3.2384,3.2393,3.2348,3.2362,3.2357,3.2299,3.2323,3.2311,3.2289,3.2287,3.226,3.2261,3.2243,3.2269,3.2288,3.2286,3.2291,3.2267,3.2352,3.236,3.2368,3.2394,3.2405,3.2274,3.2273,3.2273,3.2272,0,3.2466,3.2473,3.2496,3.2475,3.2473,3.2491,3.245,3.2453,3.2423,3.2398,3.2415,3.2392,3.2384,3.2388,3.2359,3.2409,3.2395,3.2361,3.2313,3.2386,3.241,3.242,3.2281,3.2279,3.2277,3.2276,0,0,3.2602,3.2557,3.2566,3.2555,3.2526,3.2531,3.2547,3.2539,3.2542,3.2529,3.2541,3.2544,3.2512,3.2505,3.2474,3.2491,3.2555,3.2454,3.2453,3.2473,3.2608,3.2634,3.2646,3.2531,3.2533,3.2534,3.261,0,3.2681,3.2705,3.2666,3.2699,3.2705,3.265,3.2664,3.2648,3.2625,3.2626,3.2601,3.2604,3.2561,3.2557,3.2571,3.2545,3.2582,3.2539,3.2542,3.2542,3.2548,3.2659,3.2686,3.2759,3.2619,3.2621,3.2622,0,3.2776,3.2767,3.2802,3.2769,3.277,3.2784,3.2773,3.2775,3.2755,3.2737,3.273,3.2693,3.2707,3.2661,3.2679,3.265,3.2649,3.2636,3.2638,3.2637,3.2586,3.266,3.2781,3.2792,3.2636,3.2635,3.2634,0,3.2871,3.2868,3.2888,3.2881,3.2844,3.2855,3.284,3.2818,3.2815,3.2806,3.2804,3.2797,3.2793,3.2788,3.275,3.272,3.2772,3.2724,3.2758,3.2759,3.2771,3.2771,3.2893,3.2771,3.2771,3.2771,3.2771,0,3.2963,3.2986,3.293,3.2942,3.2966,3.292,3.2945,3.2925,3.2906,3.2913,3.2866,3.2874,3.2824,3.2826,3.2797,3.2816,3.2815,3.2801,3.2792,3.2805,3.2806,3.2803,3.2797,3.2774,3.2773,3.2773,3.2772,0,3.3073,3.3036,3.3054,3.3018,3.3009,3.3029,3.2998,3.3008,3.2981,3.2991,3.2991,3.295,3.2951,3.2913,3.2906,3.2886,3.2917,3.29,3.2924,3.2918,3.2955,3.2952,3.3079,3.3093,3.2963,3.2964,3.2965,0,3.3134,3.315,3.3116,3.3117,3.3105,3.3107,3.3104,3.306,3.3059,3.3037,3.305,3.3046,3.3041,3.3045,3.3014,3.3009,3.2991,3.3036,3.299,3.3001,3.2991,3.299,3.2992,3.3046,3.3047,3.3049,3.305,0,3.3246,3.3227,3.3224,3.3215,3.3213,3.3204,3.3192,3.3196,3.3147,3.3148,3.3148,3.3144,3.3136,3.3133,3.3122,3.3107,3.307,3.3064,3.3072,3.3084,3.3097,3.309,3.295,3.3062,3.306,3.306,3.3059,3.3058,3.3333,3.3344,3.3322,3.332,3.3307,3.3296,3.3304,3.3278,3.3277,3.3267,3.3241,3.3245,3.3224,3.3205,3.3193,3.3196,3.3173,3.3184,3.3187,3.319,3.3197,3.3097,3.3194,3.3193,3.3193,3.3192,3.3192,0,3.3441,3.3424,3.3423,3.3408,3.3407,3.3372,3.3357,3.3358,3.3362,3.3346,3.3342,3.3341,3.3338,3.3308,3.3301,3.3309,3.3292,3.3308,3.3307,3.3304,3.3218,3.3212,3.3322,3.3322,3.3322,3.3322,3.3322,3.3322,3.3498,3.3516,3.3494,3.3505,3.3487,3.349,3.3485,3.3475,3.3461,3.3463,3.346,3.344,3.3418,3.3409,3.3405,3.3396,3.3395,3.3418,3.3403,3.3323,3.331,3.3298,3.3292,3.3418,3.3418,3.3489,3.349,3.349]}]]